Flag for Turkmenistan Weather past 2 weeks in Ashgabat, Turkmenistan

Now
102 °F

Sunny.


Feels Like: 96 °F
Forecast: 80 / 103 °F
Wind: 3 mph from North

Location: Ashgabat

Current Time: Aug 20, 2014 at 2:38:43 PM

Latest Report: Aug 20, 2014 at 2:00 PM


Visibility: N/A

Pressure: 29.86 "Hg

Humidity: 7%

Dew point: 28 °F

Location of AshgabatLocation

Historic Weather in Ashgabat — Graph

°F

Ashgabat temperature yesterday

Maximum temperature yesterday: 104 °F (at 2:30 PM)
Minimum temperature yesterday: 75 °F (at 6:00 AM)
Average temperature yesterday: 93 °F

Past Weeks' High & Low Weather Summary

 TemperatureHumidityPressure
High108 °F (Aug 7, 2:30 PM)55% (Aug 12, 7:00 AM)30.01 "Hg (Aug 12, 7:00 AM)
Low70 °F (Aug 16, 4:00 AM)6% (Aug 5, 1:00 PM)29.56 "Hg (Aug 5, 5:30 PM)
Average92 °F18%29.75 "Hg
* Reported Aug 5 1:00 PM — Aug 20 1:00 PM, Ashgabat, Weather by CustomWeather, © 2014

Note: Actual official high and low records may vary slightly from our data, if they occured in-between our weather recording intervals... More about our weather records

Advertising

Ashgabat weather history for previous 24 hours

 ConditionsComfort  
Time TempWeatherWind HumidityBarometerVisibility
1:00 PM
Aug 20
102 °FSunny.6 mph7%29.89 "HgN/A
12:00 PM100 °FSunny.3 mph8%29.89 "HgN/A
11:00 AM97 °FSunny.1 mph11%29.92 "HgN/A
10:00 AM93 °FSunny.3 mph12%29.89 "HgN/A
9:00 AM86 °FSunny.3 mph20%29.89 "HgN/A
8:00 AM82 °FSunny.1 mph23%29.89 "HgN/A
7:00 AM77 °FClear.1 mph24%29.86 "HgN/A
6:00 AM77 °FClear.3 mph24%29.86 "Hg4 mi
5:00 AM79 °FClear.1 mph24%29.83 "HgN/A
4:00 AM79 °FClear.6 mph28%29.83 "Hg3 mi
3:00 AM79 °FClear.3 mph30%29.83 "Hg4 mi
2:30 AM79 °FClear.3 mph30%29.83 "Hg1 mi
2:00 AM81 °FClear.1 mph26%29.83 "Hg2 mi
1:00 AM81 °FClear.3 mph26%29.83 "Hg4 mi
12:00 AM82 °FClear.1 mph23%29.83 "Hg4 mi
11:30 PM
Aug 19
88 °FClear.3 mph19%29.83 "Hg3 mi
11:00 PM86 °FClear.3 mph22%29.83 "Hg2 mi
10:30 PM86 °FClear.3 mph22%29.83 "Hg2 mi
10:00 PM90 °FClear.1 mph16%29.83 "Hg5 mi
9:00 PM93 °FClear.No wind13%29.83 "HgN/A
8:00 PM95 °FSunny.6 mph12%29.80 "HgN/A
7:30 PM99 °FSunny.8 mph10%29.80 "HgN/A
7:00 PM102 °FSunny.8 mph9%29.77 "HgN/A
6:30 PM102 °FSunny.8 mph9%29.77 "HgN/A
6:00 PM104 °FSunny.8 mph8%29.77 "HgN/A
5:30 PM104 °FSunny.8 mph8%29.77 "HgN/A
5:00 PM104 °FSunny.10 mph8%29.77 "HgN/A
4:30 PM104 °FSunny.8 mph9%29.77 "HgN/A
4:00 PM104 °FSunny.8 mph9%29.80 "HgN/A
3:30 PM104 °FSunny.8 mph9%29.80 "HgN/A
3:00 PM102 °FSunny.10 mph9%29.80 "HgN/A
2:30 PM104 °FSunny.10 mph9%29.80 "HgN/A
2:00 PM102 °FSunny.13 mph10%29.83 "HgN/A
Weather by CustomWeather, © 2014

See weather overviewHow to use our weather pages